Regional Weather Roundup
Issued by NWS

Home | Current Version | Previous Version | Graphics & Text | Print | Product List | Glossary On
Versions: 1 2 3 4 5 6 7 8 9 10 11 12 13 14 15 16 17 18 19 20 21 22 23 24 25 26 27 28 29 30 31 32 33 34 35 36 37 38 39 40 41 42 43 44 45 46 47 48 49 50
000
ASUS45 KCYS 032310
RWRWY

WYOMING REGIONAL WEATHER ROUNDUP
NATIONAL WEATHER SERVICE CHEYENNE WY
400 PM MST TUE MAR 03 2015

NOTE:  "FAIR" INDICATES FEW OR NO CLOUDS BELOW 12,000 FEET
WITH NO SIGNIFICANT WEATHER AND/OR OBSTRUCTIONS TO VISIBILITY.

WYZ001-040000-
YELLOWSTONE NATIONAL PARK

CITY           SKY/WX    TMP DP  RH WIND       PRES   REMARKS
LK YELLOWSTONE   N/A     15  -8  35 VRB7      29.74S WCI   5
W YELLOWSTONE  NOT AVBL

$$
WYZ002>013-054>058-071-098>099-040000-
NORTHERN WYOMING

CITY           SKY/WX    TMP DP  RH WIND       PRES   REMARKS
JACKSON        SUNNY     23   5  46 VRB5      29.77R WCI  17
CODY           FAIR      12   0  57 CALM      29.91S
GREYBULL       FAIR      21  -4  33 W12       29.96S WCI   9
WORLAND        PTSUNNY   18   1  47 CALM      29.95S
SHERIDAN       FAIR      10  -1  61 W12       29.99S WCI  -5
BUFFALO        CLOUDY     8  -1  66 N13       29.91R WCI  -8
GILLETTE       PTSUNNY   13   0  56 NW15      29.93R WCI  -3
HULETT         CLOUDY    14  -2  48 W8G17     29.93S WCI   3
NEWCASTLE      FAIR      18   0  45 NW20      29.92F WCI   1

$$
WYZ014>020-022>026-101>103-040000-
CENTRAL WYOMING

CITY           SKY/WX    TMP DP  RH WIND       PRES   REMARKS
BIG PINEY      FAIR      28   4  35 NW18      29.72R WCI  15
PINEDALE       LGT SNOW  21  18  86 E8        29.73R WCI  12
DUBOIS         MOCLDY    10   3  72 SE6       29.73R HAZE    WCI   1
LANDER         FAIR      12   4  70 E5        29.84S WCI   4
RIVERTON       CLOUDY    12   4  70 E6        29.86S WCI   3
CASPER         LGT SNOW  10   5  80 CALM      29.87R
DOUGLAS        LGT SNOW  11   7  84 NW7       29.89S FOG     WCI   0

$$
WYZ021-027>030-104>119-040000-
SOUTHERN WYOMING

CITY           SKY/WX    TMP DP  RH WIND       PRES   REMARKS
EVANSTON       FAIR      24  19  81 SW14      29.79R WCI  12
FORT BRIDGER   LGT SNOW  26  22  87 NW16      29.80R WCI  13
ROCK SPRINGS   FAIR      14   8  77 E10       29.75R WCI   1
DIXON          LGT SNOW  24  19  79 W10       29.76R WCI  14
RAWLINS        LGT SNOW  10   4  76 N16       29.75R WCI  -7
SARATOGA       LGT SNOW  12  10  92 NW15      29.72R VSB 1   WCI  -4
LARAMIE        CLOUDY    15   8  73 SE18G25   29.66R WCI  -2
CHEYENNE       LGT SNOW  12   4  70 NE9       29.77S WCI   0
TORRINGTON     CLOUDY    18   5  57 N8        29.92S WCI   8
PINE BLUFFS    FLURRIES  18   9  68 N12       29.85R WCI   5

$$



USA.gov is the U.S. government's official web portal to all federal, state and local government web resources and services.